[[{"header":{"parameterUnit":"m.s-1","parameterCategory":1,"la1":30.2991,"la2":30.254,"lo1":-89.0895,"lo2":-89.0444,"dy":0.0017,"dx":0.0017,"nx":28,"ny":28,"refTime":"2024-06-01T21:00:00:Z","depth":0,"parameterNumber":2,"parameterNumberName":"U-component_of_WINDS"},"data":[0,0,0,0,0,0,0,0,0,0,0,0,0,0,0,0,0,0,0,0,0,0,0,0,0,0,0,0,0,0,0,0,0,0,0,0,0,0,0,0,0,0,0,0,0,0,0,0,0,0,0,0,0,0,0,0,0,0,-1.3861,-1.3861,0,-1.3857,-1.3857,-1.3857,-1.3827,-1.3826,-1.3826,-1.3825,-1.3821,-1.3822,-1.3823,0,0,0,0,0,0,0,0,0,0,0,0,0,-1.3841,-1.3842,-1.3861,-1.3861,-1.3861,-1.3857,-1.3857,-1.3857,-1.3827,-1.3826,-1.3825,-1.3825,-1.3821,-1.3822,-1.3823,0,0,0,0,0,0,0,0,0,0,0,0,0,-1.3845,-1.3842,-1.3861,-1.3845,-1.3844,-1.3857,-1.3857,-1.3857,-1.3827,-1.3826,-1.3825,-1.3824,-1.3821,-1.3822,-1.3823,-1.3851,0,0,-1.3826,-1.3826,0,0,0,0,0,0,0,0,-1.3845,-1.3846,-1.3847,-1.3846,-1.3845,-1.3842,-1.3849,-1.3855,-1.3828,-1.3834,-1.3825,-1.3824,-1.3829,-1.3829,-1.3831,-1.3851,-1.3851,-1.3826,-1.3826,-1.3827,-1.3827,0,0,0,0,0,0,0,-1.3845,-1.3846,-1.3859,-1.3848,-1.3846,-1.3839,-1.3838,-1.385,-1.3838,-1.3833,-1.3831,-1.3831,-1.3828,-1.383,-1.3831,-1.3851,-1.3826,-1.3826,-1.3827,-1.3827,-1.3895,-1.3896,0,0,0,0,0,0,-1.3847,-1.3846,-1.3859,-1.3859,-1.3842,-1.384,-1.3839,-1.3844,-1.3837,-1.3835,-1.3832,-1.3829,-1.3829,-1.383,-1.3831,-1.3864,-1.3827,-1.3827,-1.3828,-1.3894,-1.3895,-1.3897,0,0,0,0,0,0,-1.3846,-1.3848,-1.386,-1.3852,-1.3853,-1.3841,-1.3847,-1.3844,-1.3846,-1.3837,-1.3834,-1.3836,-1.3828,-1.3829,-1.3847,-1.3864,-1.3828,-1.3829,-1.3892,-1.3894,-1.3896,-1.3931,0,0,0,0,0,0,-1.3846,-1.3848,-1.3859,-1.3852,-1.3853,-1.3876,-1.3848,-1.3845,-1.3848,-1.3845,-1.384,-1.3838,-1.3828,-1.3845,-1.3848,-1.3864,-1.3829,-1.3891,-1.3893,-1.3896,-1.3929,-1.3934,-1.3939,0,0,0,0,0,-1.3845,-1.3868,-1.3859,-1.3861,-1.3866,-1.3877,-1.3877,-1.3864,-1.385,-1.386,-1.3854,-1.3839,-1.3861,-1.3847,-1.385,-1.3867,-1.389,-1.3893,-1.3895,-1.3926,-1.3933,-1.3939,0,0,0,0,0,0,-1.3876,-1.3867,-1.3857,-1.3878,-1.3879,-1.3871,-1.3884,-1.3872,-1.3876,-1.3873,-1.3857,-1.3856,-1.3876,-1.3873,-1.3857,-1.3895,-1.3873,-1.3876,-1.3896,-1.3902,-1.3907,-1.3908,-1.383,0,0,0,0,0,-1.3886,-1.3895,-1.3886,-1.3906,-1.3907,-1.3896,-1.39,-1.389,-1.3889,-1.3889,-1.3884,-1.3884,-1.3892,-1.3897,-1.3903,-1.3928,-1.3927,-1.3941,-1.3946,-1.3951,-1.3954,-1.3968,-1.3975,-1.3906,-1.3906,-1.3906,0,0,-1.3905,-1.3901,-1.3908,-1.3912,-1.3911,-1.3921,-1.3896,-1.3907,-1.3915,-1.3891,-1.3907,-1.3904,-1.3903,-1.3925,-1.3934,-1.3923,-1.3973,-1.3954,-1.3958,-1.3959,-1.3972,-1.3979,-1.3984,-1.3908,-1.3908,-1.3907,0,0,-1.3945,-1.3943,-1.396,-1.396,-1.3959,-1.3951,-1.3956,-1.3951,-1.3948,-1.3964,-1.3946,-1.3955,-1.3968,-1.3968,-1.397,-1.4013,-1.3999,-1.4015,-1.4042,-1.4057,-1.4062,-1.4067,-1.4083,-1.4089,-1.4018,-1.4018,-1.4018,0,-1.3969,-1.3984,-1.397,-1.3983,-1.3986,-1.3966,-1.3983,-1.3983,-1.3984,-1.3987,-1.3975,-1.3991,-1.3989,-1.4011,-1.4022,-1.4024,-1.4029,-1.4016,-1.4062,-1.4067,-1.4071,-1.4087,-1.4093,-1.402,-1.402,-1.402,-1.402,0,-1.4014,-1.4025,-1.4039,-1.4041,-1.4045,-1.4061,-1.405,-1.4056,-1.4046,-1.4041,-1.4058,-1.4055,-1.4061,-1.4065,-1.4055,-1.4087,-1.408,-1.4065,-1.4043,-1.408,-1.4094,-1.41,-1.4023,-1.4023,-1.4022,-1.4022,0,0,-1.4073,-1.4069,-1.4074,-1.4076,-1.4073,-1.4082,-1.4096,-1.4102,-1.4109,-1.411,-1.4123,-1.4135,-1.4122,-1.4124,-1.4114,-1.4127,-1.4162,-1.4111,-1.411,-1.4121,-1.4198,-1.4209,-1.4216,-1.4153,-1.4154,-1.4155,-1.4198,0,-1.4113,-1.4138,-1.4127,-1.4153,-1.4164,-1.4145,-1.4158,-1.4158,-1.4154,-1.4162,-1.4157,-1.4166,-1.4147,-1.4149,-1.416,-1.4155,-1.4177,-1.4152,-1.4165,-1.4166,-1.4166,-1.4223,-1.4235,-1.4276,-1.4203,-1.4204,-1.4205,0,-1.4163,-1.4167,-1.4195,-1.4193,-1.4196,-1.4208,-1.4214,-1.4222,-1.4222,-1.4218,-1.4222,-1.4209,-1.4224,-1.4202,-1.4223,-1.4206,-1.4211,-1.421,-1.4211,-1.4212,-1.4188,-1.4227,-1.4289,-1.4295,-1.4213,-1.4213,-1.4212,0,-1.4204,-1.4217,-1.4236,-1.4238,-1.4235,-1.4244,-1.4243,-1.4243,-1.4248,-1.4252,-1.4256,-1.4262,-1.4265,-1.4271,-1.4261,-1.4246,-1.4284,-1.4261,-1.4281,-1.4282,-1.429,-1.429,-1.4355,-1.4293,-1.4292,-1.4292,-1.4292,0,-1.425,-1.4268,-1.4255,-1.4266,-1.4286,-1.4273,-1.4294,-1.4291,-1.4291,-1.4302,-1.4286,-1.4296,-1.4283,-1.4292,-1.4285,-1.4304,-1.4305,-1.4303,-1.4301,-1.4305,-1.4305,-1.4308,-1.4305,-1.4294,-1.4294,-1.4293,-1.4293,0,-1.43,-1.4291,-1.4311,-1.4307,-1.4307,-1.4322,-1.4319,-1.433,-1.4324,-1.4339,-1.4341,-1.4333,-1.4344,-1.4334,-1.4344,-1.4339,-1.4365,-1.4359,-1.4365,-1.4364,-1.4385,-1.4384,-1.4454,-1.4463,-1.4395,-1.4395,-1.4396,0,-1.433,-1.4343,-1.4342,-1.4348,-1.4349,-1.4359,-1.4364,-1.4352,-1.4359,-1.4361,-1.4372,-1.4381,-1.4388,-1.4406,-1.4401,-1.4409,-1.4403,-1.4428,-1.4404,-1.4408,-1.4405,-1.4404,-1.4406,-1.4432,-1.4433,-1.4434,-1.4434,0,-1.4384,-1.438,-1.4388,-1.4396,-1.4402,-1.4407,-1.4411,-1.4417,-1.4405,-1.4413,-1.4424,-1.443,-1.4441,-1.4451,-1.4457,-1.4457,-1.4444,-1.4442,-1.4447,-1.4452,-1.4455,-1.4455,-1.4379,-1.444,-1.444,-1.4439,-1.4439,-1.4439,-1.4426,-1.4437,-1.4438,-1.4448,-1.445,-1.4455,-1.4465,-1.4462,-1.4471,-1.4479,-1.4471,-1.4485,-1.4487,-1.4494,-1.4496,-1.4506,-1.4496,-1.4504,-1.4506,-1.4508,-1.4512,-1.4453,-1.4507,-1.4507,-1.4507,-1.4507,-1.4507,0,-1.448,-1.448,-1.449,-1.4496,-1.4504,-1.4492,-1.4496,-1.4504,-1.4516,-1.4518,-1.4526,-1.4539,-1.4549,-1.4546,-1.4555,-1.4564,-1.4559,-1.4567,-1.4566,-1.4567,-1.4519,-1.4514,-1.4571,-1.4571,-1.4571,-1.4571,-1.4571,-1.4571,-1.4509,-1.4529,-1.4525,-1.4546,-1.4546,-1.4559,-1.4563,-1.4567,-1.4569,-1.4585,-1.4594,-1.4591,-1.4592,-1.4601,-1.461,-1.4608,-1.4613,-1.4623,-1.462,-1.4576,-1.457,-1.4564,-1.4559,-1.4624,-1.4624,-1.4666,-1.4667,-1.4667]},{"header":{"parameterUnit":"m.s-1","parameterCategory":1,"la1":30.2991,"la2":30.254,"lo1":-89.0895,"lo2":-89.0444,"dy":0.0017,"dx":0.0017,"nx":28,"ny":28,"refTime":"2024-06-01T21:00:00:Z","depth":0,"parameterNumber":3,"parameterNumberName":"V-component_of_WINDS"},"data":[0,0,0,0,0,0,0,0,0,0,0,0,0,0,0,0,0,0,0,0,0,0,0,0,0,0,0,0,0,0,0,0,0,0,0,0,0,0,0,0,0,0,0,0,0,0,0,0,0,0,0,0,0,0,0,0,0,0,3.0103,3.01,0,2.9878,2.9875,2.9873,2.975,2.975,2.975,2.9749,2.9513,2.9507,2.9501,0,0,0,0,0,0,0,0,0,0,0,0,0,3.0422,3.0416,3.0103,3.01,3.0097,2.9878,2.9875,2.9872,2.975,2.975,2.975,2.9749,2.9515,2.9507,2.95,0,0,0,0,0,0,0,0,0,0,0,0,0,3.0249,3.0415,3.0103,3.001,3.0,2.9879,2.9875,2.9871,2.975,2.975,2.975,2.9749,2.9517,2.9508,2.9499,2.9452,0,0,2.9471,2.9467,0,0,0,0,0,0,0,0,3.0258,3.0237,3.0027,3.0017,3.0005,2.9842,2.99,2.973,2.9751,2.9845,2.9749,2.9749,2.9622,2.9604,2.9563,2.944,2.943,2.9471,2.9465,2.9461,2.9459,0,0,0,0,0,0,0,3.0271,3.0246,3.0014,3.0024,3.001,2.9978,2.9953,2.9868,2.9738,2.9837,2.9827,2.9803,2.9616,2.9572,2.9556,2.9427,2.9471,2.9463,2.9457,2.9454,2.9254,2.9255,0,0,0,0,0,0,3.0298,3.0257,3.0021,3.0007,3.0133,2.9973,2.9945,2.9894,2.9739,2.9715,2.9803,2.9798,2.9588,2.9567,2.9548,2.9482,2.9461,2.9453,2.9448,2.9254,2.9254,2.9255,0,0,0,0,0,0,3.0306,3.0279,3.003,3.0129,3.0095,2.9968,2.9912,2.989,2.9846,2.9714,2.969,2.9783,2.9586,2.956,2.9477,2.9472,2.9449,2.944,2.9254,2.9254,2.9255,2.935,0,0,0,0,0,0,3.0315,3.0282,3.0264,3.013,3.009,2.9965,2.9912,2.9886,2.9832,2.9822,2.9688,2.9665,2.9584,2.9491,2.9468,2.9459,2.9433,2.9254,2.9254,2.9254,2.9347,2.9354,2.936,0,0,0,0,0,3.0327,3.0298,3.0263,3.0236,3.0065,2.9965,2.9942,2.9851,2.9832,2.9812,2.9727,2.9669,2.9477,2.9484,2.9456,2.9445,2.9254,2.9254,2.9254,2.9344,2.9353,2.936,0,0,0,0,0,0,3.0432,3.0279,3.0239,3.0166,3.008,2.9945,2.9916,2.9863,2.9779,2.9773,2.9662,2.9633,2.956,2.9493,2.9504,2.9391,2.9359,2.9354,2.9437,2.9443,2.945,2.9467,2.9426,0,0,0,0,0,3.0447,3.0381,3.0249,3.0197,3.0157,3.0045,2.9997,2.9935,2.984,2.9803,2.9711,2.962,2.9539,2.9487,2.9405,2.9337,2.9306,2.9316,2.9322,2.9328,2.9325,2.9284,2.9287,2.9256,2.9256,2.9256,0,0,3.0476,3.0385,3.0349,3.0216,3.0142,3.0074,3.0014,2.9944,2.9892,2.9791,2.9708,2.9638,2.9528,2.9453,2.9415,2.9396,2.9327,2.9328,2.9334,2.9327,2.9285,2.9288,2.9291,2.9256,2.9256,2.9256,0,0,3.0495,3.042,3.0369,3.0297,3.0186,3.0112,3.01,2.9973,2.9924,2.9839,2.9762,2.9698,2.956,2.9485,2.943,2.9423,2.9367,2.9399,2.9432,2.9394,2.9396,2.9398,2.9395,2.9396,2.9396,2.9397,2.9397,0,3.0545,3.0442,3.0348,3.0284,3.0228,3.0136,3.0083,3.0016,2.9884,2.9847,2.9827,2.9654,2.9573,2.948,2.9479,2.9436,2.9418,2.9413,2.9404,2.9404,2.9404,2.9401,2.94,2.9401,2.9401,2.94,2.94,0,3.0509,3.0438,3.041,3.0288,3.0228,3.0169,3.0066,3.0016,2.996,2.9888,2.9802,2.9703,2.96,2.9573,2.9516,2.9471,2.9463,2.9425,2.9391,2.9414,2.9408,2.9406,2.9408,2.9406,2.9405,2.9404,0,0,3.0586,3.0415,3.0406,3.035,3.0222,3.0165,3.0102,3.0003,2.9963,2.9875,2.9819,2.9706,2.9671,2.9608,2.9541,2.9508,2.951,2.9474,2.947,2.9484,2.9454,2.9484,2.9484,2.9472,2.9472,2.9471,2.9464,0,3.0586,3.0472,3.0387,3.0303,3.0237,3.015,3.0095,3.001,2.9941,2.9873,2.9795,2.9717,2.9677,2.9638,2.9602,2.9518,2.9502,2.9517,2.9418,2.9415,2.9448,2.9481,2.9511,2.9509,2.9461,2.946,2.946,0,3.0571,3.049,3.0401,3.0282,3.0251,3.0204,3.0107,3.0044,2.9945,2.9897,2.9829,2.9761,2.9689,2.9663,2.9562,2.9575,2.9529,2.9482,2.9479,2.9466,2.9439,2.9468,2.9505,2.9506,2.9456,2.9456,2.9457,0,3.0637,3.0505,3.0435,3.0389,3.0249,3.0217,3.0157,3.0058,3.0005,2.992,2.9884,2.9791,2.974,2.9669,2.9578,2.9567,2.9487,2.9453,2.9444,2.9447,2.943,2.9433,2.9461,2.9402,2.9402,2.9402,2.9402,0,3.0647,3.0596,3.0463,3.042,3.036,3.0262,3.0205,3.0137,3.0051,2.9992,2.991,2.9856,2.9739,2.967,2.9598,2.9526,2.9503,2.9462,2.9443,2.9469,2.9474,2.9437,2.9435,2.9402,2.9402,2.9402,2.9402,0,3.0709,3.0618,3.0536,3.0411,3.0378,3.034,3.0231,3.0186,3.0113,3.004,3.0017,2.9902,2.9817,2.972,2.9602,2.9554,2.9487,2.946,2.9521,2.9511,2.9508,2.951,2.9513,2.9508,2.9454,2.9454,2.9455,0,3.0721,3.0681,3.0552,3.0508,3.0451,3.038,3.0327,3.0229,3.0176,3.0062,3.003,2.994,2.9862,2.9731,2.9636,2.9545,2.9515,2.9523,2.9501,2.9529,2.9515,2.9519,2.9514,2.9529,2.953,2.9531,2.9531,0,3.0752,3.071,3.0637,3.0548,3.0487,3.0411,3.0332,3.0301,3.0187,3.0131,3.0045,2.9985,2.9867,2.9778,2.9677,2.9612,2.9552,2.9539,2.9532,2.9558,2.9596,2.9576,2.9538,2.9539,2.9538,2.9538,2.9537,2.9537,3.079,3.075,3.0654,3.0575,3.0506,3.0435,3.0387,3.0309,3.0237,3.0134,3.008,2.9996,2.9898,2.9756,2.9694,2.9625,2.9605,2.9595,2.9592,2.9591,2.9599,2.9608,2.9606,2.9605,2.9605,2.9605,2.9605,0,3.0817,3.0751,3.068,3.0574,3.0512,3.0465,3.0375,3.0326,3.0253,3.0168,3.0095,2.9996,2.991,2.981,2.9717,2.9681,2.9652,2.966,2.9661,2.9648,2.9622,2.9638,2.9686,2.9686,2.9686,2.9686,2.9686,2.9686,3.0824,3.0754,3.0701,3.0596,3.053,3.0448,3.0402,3.0335,3.0267,3.0162,3.0091,3.0027,2.9936,2.9836,2.9755,2.9727,2.9697,2.9714,2.9678,2.9656,2.9649,2.9643,2.9656,2.9708,2.9708,2.9709,2.9709,2.9709]}]]